This demonstration page uses our WeatherBlox Daily Observations layout. Learn more.

Left ArrowRight Arrow

Hourly Observations for July 17, 2016

Temp ( °F °C ) Dew Point ( °F °C ) Humidity (%) Winds ( mph kmh ) Pressure ( in mb ) Visibility ( mi km ) Precip ( " mm )
12:58 am 00:58 Clear 78 25.3 71 21.7 81 81 SSE 14 22 29.84 1011 10 16 0.00 0.00
1:58 am 01:58 Clear 77 24.9 71 21.9 83 83 SSE 9 15 29.85 1011 10 16 0.00 0.00
2:58 am 02:58 Mostly Cloudy 75 23.7 72 22.3 92 92 VRB 2 4 29.84 1011 10 16 0.00 0.00
3:55 am 03:55 Mostly Cloudy with Thunderstorms 73 23 73 23 100 100 E 7 11 29.83 1010 10 16 0.00 0.00
3:58 am 03:58 Mostly Cloudy with Thunderstorms 74 23.3 73 22.5 95 95 E 7 11 29.86 1011 10 16 0.00 0.00
4:06 am 04:06 Mostly Cloudy with Thunderstorms 75 24 72 22 89 89 ENE 8 13 29.83 1010 10 16 0.00 0.00
4:47 am 04:47 Partly Cloudy 75 24 72 22 89 89 E 8 13 29.83 1010 10 16 0.00 0.00
4:58 am 04:58 Mostly Clear 75 23.8 73 22.5 92 92 E 8 13 29.87 1012 10 16 0.00 0.00
5:25 am 05:25 Mostly Cloudy with Thunderstorms 75 24 72 22 89 89 E 8 13 29.83 1010 10 16 0.00 0.00
5:28 am 05:28 Mostly Cloudy with Strong Thunderstorms 75 24 73 23 94 94 ESE 7 11 29.83 1010 3 5 0.00 0.00
5:30 am 05:30 Mostly Cloudy with Thunderstorms 75 24 73 23 94 94 E 12 19 29.85 1011 4 6 0.00 0.00
5:56 am 05:56 Mostly Cloudy with Nearby Thunderstorms 73 23 73 23 100 100 E 9 15 29.80 1009 10 16 0.00 0.00
5:58 am 05:58 Partly Cloudy with Nearby Thunderstorms 73 23 73 23 100 100 E 8 13 29.84 1011 10 16 0.06 1.52
6:58 am 06:58 Mostly Sunny 74 23.4 73 22.9 97 97 ESE 13 20 29.84 1011 10 16 0.00 0.03
7:58 am 07:58 Partly Cloudy 76 24.5 74 23.2 92 92 E 7 11 29.86 1011 10 16 0.00 0.00
8:58 am 08:58 Sunny 77 25 74 23.2 90 90 SE 10 17 29.88 1012 10 16 0.00 0.00
9:58 am 09:58 Sunny 79 26.1 74 23.5 86 86 SE 8 13 29.91 1013 10 16 0.00 0.00
10:58 am 10:58 Sunny 83 28.3 74 23.3 74 74 E 8 13 29.88 1012 10 16 0.00 0.00
11:58 am 11:58 Sunny 85 29.6 74 23.3 69 69 ESE 7 11 29.90 1013 10 16 0.00 0.00
12:58 pm 12:58 Partly Cloudy 86 29.9 75 23.8 70 70 E 9 15 29.90 1013 10 16 0.00 0.00
1:58 pm 13:58 Mostly Sunny 85 29.4 76 24.4 75 75 E 8 13 29.92 1013 10 16 0.00 0.00
2:58 pm 14:58 Mostly Sunny 84 28.9 76 24.4 77 77 SE 6 9 29.92 1013 10 16 0.00 0.00
3:58 pm 15:58 Mostly Sunny 85 29.6 75 23.7 71 71 S 7 11 29.88 1012 10 16 0.00 0.00
4:58 pm 16:58 Sunny 84 28.7 72 22.1 68 68 SW 3 6 29.94 1014 10 16 0.00 0.00
5:58 pm 17:58 Mostly Sunny 83 28.6 72 22.2 68 68 SSW 5 7 29.96 1014 10 16 0.00 0.00
6:58 pm 18:58 Sunny 83 28.5 74 23.3 73 73 WSW 3 6 29.95 1014 10 16 0.00 0.00
7:58 pm 19:58 Mostly Sunny 83 28.4 74 23.5 75 75 E 2 4 29.96 1015 10 16 0.00 0.00
8:58 pm 20:58 Clear 79 25.9 75 24 89 89 ENE 5 7 29.98 1015 10 16 0.00 0.00
9:58 pm 21:58 Partly Cloudy 75 23.9 73 22.9 94 94 E 3 6 30.01 1016 10 16 0.00 0.00
10:58 pm 22:58 Partly Cloudy 77 25.1 74 23.1 89 89 ESE 2 4 30.01 1016 10 16 0.00 0.00
11:58 pm 23:58 Mostly Cloudy with Nearby Thunderstorms 77 25 73 22.9 88 88 VRB 2 4 29.99 1016 10 16 0.00 0.00

Powered by AerisWeather